Total_Precipitation_Accumulation
0.23 0.22 0.21 0.19 0.19 0.21 0.25 0.33 0.38 0.30 0.19 0.11 0.11 0.13 0.22 0.25 0.27 0.31 0.39 0.28 0.25 0.30 0.31 0.33 0.38 0.47 0.50 0.42 0.34 0.28 0.26 0.25 0.25 0.30 0.38 0.48 0.60 0.71
0.21 0.19 0.17 0.15 0.15 0.15 0.17 0.21 0.30 0.37 0.31 0.15 0.11 0.16 0.22 0.22 0.26 0.35 0.37 0.34 0.38 0.62 0.74 0.66 0.60 0.72 0.78 0.65 0.50 0.40 0.35 0.32 0.32 0.34 0.39 0.46 0.54 0.64
0.14 0.14 0.14 0.15 0.16 0.16 0.18 0.22 0.26 0.37 0.42 0.25 0.17 0.20 0.26 0.29 0.34 0.39 0.40 0.43 0.55 0.96 1.22 1.41 1.15 1.03 1.07 0.93 0.74 0.56 0.46 0.42 0.42 0.45 0.48 0.53 0.57 0.61
0.14 0.15 0.15 0.15 0.17 0.18 0.22 0.25 0.29 0.39 0.52 0.44 0.31 0.34 0.38 0.41 0.51 0.54 0.49 0.44 0.52 0.94 1.32 1.66 1.62 1.41 1.42 1.24 1.03 0.76 0.57 0.49 0.47 0.48 0.51 0.54 0.59 0.65
0.15 0.17 0.17 0.20 0.22 0.25 0.33 0.37 0.40 0.44 0.56 0.59 0.47 0.48 0.53 0.60 0.73 0.68 0.57 0.54 0.45 0.73 1.19 1.53 1.73 1.80 1.90 1.75 1.43 1.05 0.74 0.56 0.49 0.49 0.50 0.52 0.54 0.55
0.16 0.20 0.24 0.29 0.34 0.39 0.40 0.41 0.46 0.52 0.57 0.64 0.60 0.62 0.67 0.73 0.78 0.78 0.65 0.56 0.52 0.59 1.02 1.52 1.85 1.92 2.12 2.25 1.96 1.45 1.02 0.71 0.55 0.48 0.42 0.39 0.38 0.39
0.16 0.19 0.24 0.33 0.39 0.38 0.37 0.39 0.49 0.60 0.63 0.70 0.71 0.68 0.67 0.75 0.77 0.68 0.59 0.50 0.44 0.50 0.71 1.16 1.83 2.14 2.19 2.29 2.23 1.74 1.27 0.92 0.67 0.53 0.44 0.38 0.35 0.35
0.20 0.20 0.19 0.22 0.22 0.22 0.29 0.35 0.45 0.63 0.84 0.94 0.84 0.73 0.60 0.60 0.63 0.60 0.60 0.55 0.46 0.37 0.43 0.74 1.36 2.02 2.27 2.34 2.30 1.77 1.27 0.95 0.76 0.64 0.56 0.48 0.42 0.39
0.24 0.22 0.17 0.13 0.16 0.20 0.25 0.30 0.41 0.58 0.80 1.06 1.05 0.78 0.69 0.64 0.67 0.66 0.65 0.67 0.59 0.40 0.45 0.65 1.07 1.73 2.06 2.19 2.09 1.54 1.13 0.90 0.78 0.69 0.62 0.56 0.49 0.45
0.21 0.21 0.21 0.20 0.20 0.24 0.25 0.29 0.39 0.56 0.70 0.79 1.02 0.84 0.67 0.65 0.66 0.65 0.67 0.63 0.50 0.38 0.45 0.64 0.97 1.48 1.62 1.73 1.76 1.39 1.07 0.89 0.77 0.68 0.62 0.59 0.54 0.53
0.15 0.16 0.15 0.18 0.21 0.32 0.40 0.50 0.60 0.77 0.83 0.96 1.12 1.08 0.96 0.86 0.72 0.67 0.67 0.59 0.49 0.40 0.44 0.59 0.83 1.06 1.21 1.34 1.36 1.27 1.07 0.91 0.80 0.72 0.65 0.60 0.53 0.55
0.10 0.15 0.16 0.16 0.25 0.41 0.57 0.70 0.81 0.94 0.89 0.97 1.17 1.22 1.07 1.04 1.04 0.88 0.74 0.60 0.52 0.50 0.45 0.52 0.65 0.75 1.00 1.12 1.08 1.03 1.00 1.03 0.94 0.83 0.73 0.62 0.50 0.47
0.09 0.18 0.26 0.25 0.32 0.52 0.71 0.79 0.96 1.04 1.01 0.96 0.91 0.90 0.95 0.95 0.91 0.87 0.72 0.56 0.47 0.47 0.42 0.49 0.63 0.65 0.76 0.91 1.00 1.05 1.01 1.00 0.93 0.93 0.93 0.81 0.64 0.54
0.19 0.27 0.35 0.35 0.41 0.61 0.77 0.96 1.16 1.25 1.09 0.96 0.77 0.67 0.65 0.67 0.69 0.65 0.57 0.47 0.41 0.39 0.38 0.44 0.61 0.70 0.66 0.67 0.93 1.09 1.12 1.15 1.05 0.99 0.95 0.92 0.81 0.76
0.24 0.34 0.39 0.41 0.57 0.84 1.05 1.21 1.32 1.28 1.16 0.93 0.71 0.64 0.57 0.53 0.54 0.57 0.54 0.45 0.39 0.34 0.32 0.38 0.50 0.61 0.61 0.64 0.87 1.01 1.13 1.34 1.27 1.16 1.01 0.90 0.84 0.79
0.24 0.38 0.49 0.56 0.73 1.00 1.20 1.34 1.36 1.24 1.04 0.86 0.73 0.69 0.61 0.54 0.53 0.47 0.42 0.36 0.35 0.37 0.35 0.35 0.42 0.49 0.56 0.59 0.72 0.90 1.01 1.37 1.40 1.15 1.02 0.98 0.90 0.81
0.24 0.35 0.46 0.58 0.78 0.97 1.14 1.22 1.21 1.11 0.98 0.77 0.65 0.66 0.65 0.58 0.54 0.45 0.36 0.28 0.27 0.31 0.34 0.35 0.39 0.41 0.43 0.49 0.64 0.80 0.92 1.12 1.19 1.00 0.81 0.84 0.92 0.85
0.29 0.37 0.47 0.61 0.80 0.98 1.09 1.08 1.01 0.93 0.82 0.68 0.60 0.56 0.56 0.53 0.51 0.43 0.33 0.27 0.27 0.26 0.27 0.28 0.29 0.27 0.26 0.37 0.60 0.69 0.75 0.90 0.92 0.75 0.56 0.60 0.85 0.92
0.28 0.40 0.52 0.65 0.80 0.94 1.00 0.98 0.94 0.84 0.73 0.64 0.57 0.52 0.47 0.45 0.40 0.35 0.30 0.27 0.25 0.24 0.23 0.20 0.18 0.18 0.19 0.38 0.62 0.72 0.70 0.71 0.65 0.58 0.52 0.52 0.75 0.92
0.34 0.49 0.59 0.66 0.73 0.80 0.86 0.90 0.90 0.82 0.71 0.63 0.59 0.54 0.47 0.39 0.32 0.27 0.23 0.21 0.20 0.20 0.21 0.17 0.16 0.17 0.19 0.29 0.54 0.70 0.65 0.54 0.44 0.44 0.46 0.50 0.67 0.78
0.41 0.52 0.60 0.66 0.67 0.67 0.71 0.76 0.77 0.75 0.67 0.61 0.58 0.55 0.47 0.37 0.28 0.21 0.17 0.11 0.13 0.16 0.17 0.17 0.15 0.13 0.13 0.15 0.29 0.46 0.51 0.52 0.42 0.35 0.33 0.33 0.37 0.36
0.41 0.49 0.55 0.59 0.56 0.56 0.57 0.59 0.61 0.62 0.58 0.55 0.52 0.50 0.41 0.30 0.23 0.18 0.16 0.13 0.12 0.11 0.11 0.11 0.10 0.08 0.08 0.13 0.23 0.32 0.34 0.32 0.30 0.28 0.27 0.24 0.21 0.30
0.40 0.41 0.43 0.46 0.45 0.44 0.43 0.45 0.48 0.52 0.53 0.54 0.51 0.45 0.35 0.26 0.21 0.16 0.13 0.10 0.09 0.08 0.07 0.07 0.06 0.05 0.06 0.08 0.14 0.18 0.19 0.18 0.16 0.17 0.24 0.31 0.31 0.38